When you browse on this site, cookies collect data to enhance your experience and personalize the content and advertising you see.
Visit our Privacy Policy to learn more. By continuing to use the site, you agree to this use of cookies and data.
  • In Lithuania
  • List of Countries
  • For 7 days
  • Water Temperature
  • Weather Map
  • Weather Widgets
  • user-avatar
    Login

    Hourly Weather Oktyabrskiy

    Today, 19 August, Monday

    Time Temperature Precipitation Wind Pressure Humidity
    00:00 +23°C° 0.5 mm 2 mps 742 mmHg 83%
    01:00 +21°C° 0.4 mm 2 mps 742 mmHg 83%
    02:00 +21°C° 0.4 mm 3 mps 742 mmHg 84%
    03:00 +21°C° 0.4 mm 3 mps 742 mmHg 85%
    04:00 +20°C° 0.1 mm 3 mps 742 mmHg 86%
    05:00 +20°C° 0.1 mm 3 mps 742 mmHg 86%
    06:00 +20°C° 0.1 mm 3 mps 743 mmHg 86%
    07:00 +21°C° 0 mm 3 mps 743 mmHg 81%
    08:00 +24°C° 0 mm 3 mps 743 mmHg 75%
    09:00 +26°C° 0 mm 3 mps 744 mmHg 70%
    10:00 +27°C° 0 mm 4 mps 744 mmHg 64%
    11:00 +28°C° 0 mm 4 mps 744 mmHg 58%
    12:00 +30°C° 0 mm 4 mps 744 mmHg 53%
    13:00 +32°C° 0 mm 4 mps 744 mmHg 51%
    14:00 +32°C° 0 mm 4 mps 744 mmHg 48%
    15:00 +33°C° 0 mm 4 mps 744 mmHg 46%
    16:00 +33°C° 0 mm 4 mps 744 mmHg 48%
    17:00 +32°C° 0 mm 4 mps 744 mmHg 50%
    18:00 +32°C° 0 mm 4 mps 744 mmHg 52%
    19:00 +29°C° 0 mm 5 mps 744 mmHg 57%
    20:00 +28°C° 0 mm 5 mps 744 mmHg 63%
    21:00 +26°C° 0 mm 5 mps 744 mmHg 68%
    22:00 +25°C° 0 mm 5 mps 744 mmHg 71%
    23:00 +25°C° 0 mm 5 mps 744 mmHg 73%

    Tomorrow, 20 August, Tuesday

    Time Temperature Precipitation Wind Pressure Humidity
    00:00 +23°C° 0 mm 4 mps 744 mmHg 76%
    01:00 +22°C° 0 mm 5 mps 744 mmHg 78%
    02:00 +22°C° 0 mm 5 mps 744 mmHg 80%
    03:00 +21°C° 0 mm 5 mps 744 mmHg 82%
    04:00 +21°C° 0 mm 5 mps 744 mmHg 83%
    05:00 +21°C° 0 mm 5 mps 744 mmHg 83%
    06:00 +21°C° 0 mm 5 mps 745 mmHg 83%
    07:00 +22°C° 0 mm 5 mps 745 mmHg 76%
    08:00 +25°C° 0 mm 5 mps 745 mmHg 68%
    09:00 +27°C° 0 mm 5 mps 745 mmHg 60%
    10:00 +29°C° 0 mm 5 mps 745 mmHg 53%
    11:00 +32°C° 0 mm 5 mps 745 mmHg 46%
    12:00 +34°C° 0 mm 4 mps 745 mmHg 39%
    13:00 +35°C° 0 mm 4 mps 745 mmHg 37%
    14:00 +35°C° 0 mm 4 mps 745 mmHg 35%
    15:00 +36°C° 0 mm 4 mps 745 mmHg 34%
    16:00 +36°C° 0 mm 4 mps 745 mmHg 36%
    17:00 +35°C° 0 mm 4 mps 745 mmHg 37%
    18:00 +35°C° 0 mm 4 mps 745 mmHg 39%
    19:00 +33°C° 0 mm 4 mps 745 mmHg 44%
    20:00 +30°C° 0 mm 5 mps 745 mmHg 50%
    21:00 +29°C° 0 mm 5 mps 745 mmHg 55%
    22:00 +28°C° 0 mm 5 mps 745 mmHg 56%
    23:00 +27°C° 0 mm 5 mps 745 mmHg 56%

    Day after tomorrow, 21 August, Wednesday

    Time Temperature Precipitation Wind Pressure Humidity
    00:00 +27°C° 0 mm 5 mps 745 mmHg 57%
    01:00 +26°C° 0 mm 5 mps 745 mmHg 59%
    02:00 +25°C° 0 mm 5 mps 745 mmHg 60%
    03:00 +25°C° 0 mm 5 mps 745 mmHg 62%
    04:00 +23°C° 0 mm 4 mps 745 mmHg 63%
    05:00 +23°C° 0 mm 4 mps 745 mmHg 65%
    06:00 +22°C° 0 mm 4 mps 745 mmHg 66%
    07:00 +25°C° 0 mm 4 mps 745 mmHg 58%
    08:00 +27°C° 0 mm 4 mps 745 mmHg 49%
    09:00 +29°C° 0 mm 4 mps 745 mmHg 41%
    10:00 +33°C° 0 mm 5 mps 745 mmHg 34%
    11:00 +35°C° 0 mm 5 mps 745 mmHg 28%
    12:00 +37°C° 0 mm 5 mps 745 mmHg 21%
    13:00 +39°C° 0 mm 5 mps 745 mmHg 20%
    14:00 +39°C° 0 mm 5 mps 745 mmHg 18%
    15:00 +40°C° 0 mm 5 mps 744 mmHg 17%
    16:00 +38°C° 0 mm 4 mps 744 mmHg 19%
    17:00 +37°C° 0 mm 4 mps 744 mmHg 21%
    18:00 +36°C° 0 mm 4 mps 744 mmHg 23%
    19:00 +34°C° 0 mm 4 mps 744 mmHg 26%
    20:00 +32°C° 0 mm 4 mps 744 mmHg 28%
    21:00 +29°C° 0 mm 4 mps 744 mmHg 31%
    22:00 +29°C° 0 mm 4 mps 744 mmHg 34%
    23:00 +28°C° 0 mm 5 mps 744 mmHg 37%

    22 August, Thursday

    Time Temperature Precipitation Wind Pressure Humidity
    00:00 +28°C° 0 mm 5 mps 744 mmHg 40%
    01:00 +27°C° 0 mm 5 mps 744 mmHg 44%
    02:00 +27°C° 0 mm 5 mps 744 mmHg 48%
    03:00 +26°C° 0 mm 5 mps 744 mmHg 52%
    04:00 +26°C° 0 mm 5 mps 744 mmHg 54%
    05:00 +25°C° 0 mm 5 mps 744 mmHg 57%
    06:00 +23°C° 0 mm 4 mps 744 mmHg 59%
    07:00 +26°C° 0 mm 5 mps 744 mmHg 54%
    08:00 +28°C° 0 mm 5 mps 744 mmHg 48%
    09:00 +30°C° 0 mm 6 mps 744 mmHg 43%
    10:00 +32°C° 0 mm 6 mps 744 mmHg 39%
    11:00 +34°C° 0 mm 6 mps 744 mmHg 34%
    12:00 +36°C° 0 mm 6 mps 744 mmHg 29%
    13:00 +36°C° 0 mm 6 mps 744 mmHg 28%
    14:00 +38°C° 0 mm 6 mps 744 mmHg 28%
    15:00 +38°C° 0 mm 6 mps 744 mmHg 27%
    16:00 +36°C° 0 mm 5 mps 744 mmHg 28%
    17:00 +35°C° 0 mm 5 mps 743 mmHg 30%
    18:00 +35°C° 0 mm 5 mps 743 mmHg 31%
    19:00 +33°C° 0 mm 4 mps 743 mmHg 33%
    20:00 +30°C° 0 mm 4 mps 743 mmHg 35%
    21:00 +28°C° 0 mm 4 mps 743 mmHg 38%
    22:00 +27°C° 0 mm 4 mps 743 mmHg 40%
    23:00 +27°C° 0 mm 4 mps 743 mmHg 43%

    23 August, Friday

    Time Temperature Precipitation Wind Pressure Humidity
    00:00 +26°C° 0 mm 4 mps 743 mmHg 45%
    01:00 +26°C° 0 mm 4 mps 743 mmHg 47%
    02:00 +25°C° 0 mm 4 mps 743 mmHg 49%
    03:00 +25°C° 0 mm 4 mps 743 mmHg 51%
    04:00 +23°C° 0 mm 4 mps 743 mmHg 52%
    05:00 +23°C° 0 mm 4 mps 743 mmHg 53%
    06:00 +23°C° 0 mm 4 mps 743 mmHg 54%
    07:00 +25°C° 0 mm 4 mps 743 mmHg 50%
    08:00 +27°C° 0 mm 4 mps 743 mmHg 46%
    09:00 +28°C° 0 mm 4 mps 744 mmHg 42%
    10:00 +30°C° 0 mm 4 mps 744 mmHg 38%
    11:00 +33°C° 0 mm 4 mps 744 mmHg 33%
    12:00 +35°C° 0 mm 4 mps 744 mmHg 28%
    13:00 +35°C° 0 mm 4 mps 744 mmHg 27%
    14:00 +36°C° 0 mm 4 mps 744 mmHg 26%
    15:00 +36°C° 0 mm 3 mps 743 mmHg 25%
    16:00 +36°C° 0 mm 3 mps 743 mmHg 27%
    17:00 +35°C° 0 mm 3 mps 743 mmHg 29%
    18:00 +34°C° 0 mm 3 mps 743 mmHg 31%
    19:00 +31°C° 0 mm 3 mps 743 mmHg 34%
    20:00 +30°C° 0 mm 3 mps 743 mmHg 37%
    21:00 +28°C° 0 mm 3 mps 743 mmHg 40%
    22:00 +27°C° 0 mm 3 mps 743 mmHg 41%
    23:00 +27°C° 0 mm 2 mps 743 mmHg 42%

    24 August, Saturday

    Time Temperature Precipitation Wind Pressure Humidity
    00:00 +26°C° 0 mm 2 mps 742 mmHg 44%
    01:00 +26°C° 0 mm 2 mps 742 mmHg 44%
    02:00 +25°C° 0 mm 2 mps 742 mmHg 45%
    03:00 +25°C° 0 mm 2 mps 742 mmHg 46%
    04:00 +25°C° 0 mm 2 mps 742 mmHg 47%
    05:00 +24°C° 0 mm 2 mps 742 mmHg 49%
    06:00 +24°C° 0 mm 2 mps 742 mmHg 50%
    07:00 +26°C° 0 mm 3 mps 742 mmHg 49%
    08:00 +27°C° 0 mm 5 mps 743 mmHg 48%
    09:00 +29°C° 0 mm 6 mps 743 mmHg 47%
    10:00 +29°C° 0 mm 6 mps 743 mmHg 49%
    11:00 +30°C° 0 mm 7 mps 743 mmHg 51%
    12:00 +30°C° 0 mm 7 mps 743 mmHg 52%
    13:00 +30°C° 0 mm 7 mps 743 mmHg 49%
    14:00 +30°C° 0 mm 7 mps 744 mmHg 46%
    15:00 +30°C° 0 mm 7 mps 744 mmHg 43%
    16:00 +29°C° 0 mm 8 mps 744 mmHg 44%
    17:00 +28°C° 0 mm 8 mps 744 mmHg 45%
    18:00 +27°C° 0 mm 8 mps 745 mmHg 47%
    19:00 +24°C° 0 mm 7 mps 745 mmHg 52%
    20:00 +22°C° 0 mm 7 mps 746 mmHg 56%
    21:00 +20°C° 0 mm 7 mps 746 mmHg 61%
    22:00 +18°C° 0 mm 7 mps 746 mmHg 62%
    23:00 +18°C° 0 mm 7 mps 747 mmHg 63%
    Show more